User: anonymous   Login
Location: Unspecified
(0.0000°N, 0.0000°E)
Time: 11:34:47
(UTC+00:00)
Language:

Sapphire - Orbit

View from above orbital plane
View from above orbital plane
View from above satellite
View from above satellite

Ground track
Ground track

The orbit data is extracted from the following two-line orbital elements,

1 26932U 01043D   17265.20756967 -.00000046  00000-0  14302-4 0  9998
2 26932  67.0561 203.3391 0007915 250.7867 109.2378 14.30258694834240
Epoch (UTC): 22 September 2017 04:58:54
Eccentricity: 0.0007915
inclination: 67.0561°
perigee height: 785 km
apogee height: 796 km
right ascension of ascending node: 203.3391°
argument of perigee: 250.7867°
revolutions per day: 14.30258694
mean anomaly at epoch: 109.2378°
orbit number at epoch: 83424

The dashed part of the orbit path shows where the satellite is in the earth's shadow,  

DLR